Regional Weather Roundup
Issued by NWS

Home | Current Version | Previous Version | Graphics & Text | Print | Product List | Glossary On
Versions: 1 2 3 4 5 6 7 8 9 10 11 12 13 14 15 16 17 18 19 20 21 22 23 24 25 26 27 28 29 30 31 32 33 34 35 36 37 38 39 40 41 42 43 44 45 46 47 48 49 50
000
ASUS43 KIND 182009
RWRIN

WEATHER ROUNDUP FOR INDIANA
NATIONAL WEATHER SERVICE INDIANAPOLIS IN
300 PM EST SAT NOV 18 2017

NOTE: "FAIR" INDICATES FEW OR NO CLOUDS BELOW 12,000 FEET WITH NO
SIGNIFICANT WEATHER AND/OR OBSTRUCTIONS TO VISIBILITY.

* - STATION DOES NOT REPORT WEATHER SUCH AS PRECIPITATION OR FOG.

+ - STATION NOT QUALITY CONTROLLED BY THE NATIONAL WEATHER SERVICE.
    USE DATA WITH CAUTION...ESPECIALLY DEWPOINT AND RELATIVE
    HUMIDITY OBSERVATIONS.

INZ001>003-010>013-019-020-182100-
NORTHWEST INDIANA

CITY           SKY/WX    TMP DP  RH WIND       PRES   REMARKS
GARY /AIRPORT/ RAIN      41  39  93 N25G48    29.47R
KNOX *+        CLOUDY    43  41  93 N23       29.37R
LA PORTE +     RAIN      42  39  91 N28G36    29.39R
MICHIGAN CITY+ LGT RAIN  43  41  93 N17G30    29.42R
MONTICELLO +   HVY RAIN  44  41  89 N23G30    29.34R
RENSSELAER +   LGT RAIN  43  37  81 N20G29    29.40R
VALPARAISO     LGT RAIN  44  40  85 N18G30    29.41R FOG

$$

LMZ046-743>745-182100-
SOUTHERN LAKE MICHIGAN

STATION/POSITION TIME  TEMP    WIND        PRES    WAVE
                       AIR SEA DIR/SP/G            HT
                 (UTC) (F)     (DEG/KT/KT) (MB)    (FT)
BURNS HARBOR     1940   43     350/ 29/ 35  997.3R
MICHIGAN CITY    1940   44     340/ 35/ 40   N/A

$$

INZ004-005-014>016-021>024-182100-
NORTH CENTRAL INDIANA

CITY           SKY/WX    TMP DP  RH WIND       PRES   REMARKS
ELKHART        LGT RAIN  41  39  93 N10       29.35R
GOSHEN         LGT RAIN  43  38  82 N16       29.33R
LOGANSPORT +   RAIN      43  41  93 N20G30    29.31F
PERU/GRISSOM   LGT RAIN  46  46 100 N20G33    29.28S
ROCHESTER +    LGT RAIN  45  43  93 N16G26    29.31S
SOUTH BEND     LGT RAIN  41  41 100 N20       29.37R
WARSAW +       CLOUDY    43  41  93 NW16G24   29.33R

$$

INZ006>009-017-018-025>027-182100-
NORTHEAST INDIANA

CITY           SKY/WX    TMP DP  RH WIND       PRES   REMARKS
AUBURN +       DRIZZLE   46  45  93 N9        29.23F
FORT WAYNE     RAIN      50  49  96 N15       29.22R FOG
HUNTINGTON +   DRIZZLE   47  46  96 N14       29.25R
KENDALLVILLE + LGT RAIN N/A N/A N/A N17G25    29.27R

$$

INZ028-029-035-036-043>045-051>053-182100-
WEST CENTRAL INDIANA

CITY           SKY/WX    TMP DP  RH WIND       PRES   REMARKS
CRAWFORDSVL +  CLOUDY    45  45 100 NW23G29     N/A
GREENCASTLE +  HVY RAIN  48  46  93 N17G23    29.32R
LAFAYETTE      LGT RAIN  45  42  89 N25G33    29.36R
TERRE HAUTE    CLOUDY    50  47  89 N22G30    29.35R

$$

INZ030>032-037>040-046>048-054>057-064-065-182100-
CENTRAL INDIANA

CITY           SKY/WX    TMP DP  RH WIND       PRES   REMARKS
ANDERSON       CLOUDY    55  55 100 W12       29.26F
CP ATTERBURY + CLOUDY    63  59  88 SW14G24   29.24F
COLUMBUS       LGT RAIN  64  57  77 S29G40    29.24
FISHERS *+     CLOUDY    54  54 100 NW12G17   29.24
FRANKFORT +    LGT RAIN  48  46  92 N21G28    29.32S
INDIANAPOLIS   TSTM      57  55  93 W14       29.27R VSB 3/4
-EAGLE CREEK   TSTM      55  52  89 NW23G29   29.25R FOG
KOKOMO +       LGT RAIN  47  45  93 N17G25    29.28R
MARION +       RAIN      49  49  99 NW15      29.27R
MT COMFORT *+  CLOUDY    55  55 100 NW8       29.24S
SHELBYVILLE    HVY RAIN  63  59  87 SW18G28   29.22F FOG
ZIONSVILLE +   HVY RAIN  48  48  99 N15G21    29.26R

$$

INZ033-034-041-042-049-050-058-059-182100-
EAST CENTRAL INDIANA

CITY           SKY/WX    TMP DP  RH WIND       PRES   REMARKS
MUNCIE         TSTM      58  55  90 VRB6      29.20F FOG
RICHMOND +     LGT RAIN  59  59 100 SW26G33   29.24F

$$

INZ060-061-067>069-081>083-085>088-182100-
SOUTHWEST INDIANA

CITY           SKY/WX    TMP DP  RH WIND       PRES   REMARKS
EVANSVILLE     RAIN      66  62  87 SW21G28   29.31F FOG
HUNTINGBURG +  TSTM      65  61  87 SW15      29.30F
WASHINGTON +   RAIN      64  60  86 SW15G26   29.26F

$$

INZ062-063-066-070>080-084-089>092-182100-
SOUTH CENTRAL AND SOUTHEAST INDIANA

CITY           SKY/WX    TMP DP  RH WIND       PRES   REMARKS
BEDFORD +        N/A     64  59  82 SW17G30   29.25F
BLOOMINGTON    RAIN      63  59  87 S12G23    29.23F FOG
MADISON *+     CLOUDY    64  57  77 S18G29    29.33F
NORTH VERNON + LGT RAIN  63  57  82 S22G28    29.28F
SEYMOUR +      CLOUDY    66  57  72 SW20G32   29.28

$$





USA.gov is the U.S. government's official web portal to all federal, state and local government web resources and services.